This is the latest recevied weather packets stored in our database for station/object SV1RVP-13. If no packets are shown the sender has not sent any weather packets the latest 10 day(s).
| Time | Temp. | Humidity | Pressure | Rain* | Wind** | Luminosity | Snow |
|---|---|---|---|---|---|---|---|
| 1777973306 | 22.22° C | 53% | 1016.4 hPa | 0 mm | - | - | - |
| 1777972729 | 22.22° C | 54% | 1016.4 hPa | 0 mm | - | - | - |
| 1777972123 | 22.78° C | 55% | 1016.6 hPa | 0 mm | - | - | - |
| 1777971520 | 22.78° C | 52% | 1016.5 hPa | 0 mm | - | - | - |
| 1777970920 | 22.22° C | 52% | 1016.5 hPa | 0 mm | - | - | - |
| 1777970313 | 22.22° C | 54% | 1016.7 hPa | 0 mm | - | - | - |
| 1777969713 | 21.67° C | 54% | 1016.8 hPa | 0 mm | - | - | - |
| 1777969133 | 21.67° C | 56% | 1016.8 hPa | 0 mm | - | - | - |
| 1777968505 | 21.67° C | 54% | 1016.8 hPa | 0 mm | - | - | - |
| 1777967917 | 21.11° C | 50% | 1016.9 hPa | 0 mm | - | - | - |
| 1777967322 | 21.11° C | 49% | 1016.9 hPa | 0 mm | - | - | - |
| 1777966716 | 20.56° C | 48% | 1016.9 hPa | 0 mm | - | - | - |
| 1777966114 | 20° C | 46% | 1016.9 hPa | 0 mm | - | - | - |
| 1777965510 | 20° C | 48% | 1016.9 hPa | 0 mm | - | - | - |
| 1777964917 | 20° C | 47% | 1016.9 hPa | 0 mm | - | - | - |
| 1777964308 | 19.44° C | 47% | 1016.9 hPa | 0 mm | - | - | - |
| 1777963729 | 18.89° C | 50% | 1016.9 hPa | 0 mm | - | - | - |
| 1777963119 | 18.89° C | 54% | 1016.8 hPa | 0 mm | - | - | - |
| 1777962517 | 18.33° C | 56% | 1016.9 hPa | 0 mm | - | - | - |
| 1777961913 | 17.78° C | 59% | 1016.8 hPa | 0 mm | - | - | - |
| 1777961314 | 17.22° C | 60% | 1016.7 hPa | 0 mm | - | - | - |
| 1777960707 | 17.22° C | 61% | 1016.7 hPa | 0 mm | - | - | - |
| 1777960128 | 17.22° C | 62% | 1016.6 hPa | 0 mm | - | - | - |
| 1777959517 | 16.67° C | 64% | 1016.6 hPa | 0 mm | - | - | - |
| 1777958913 | 16.11° C | 66% | 1016.7 hPa | 0 mm | - | - | - |
* Rain since midnight (hover to see other rain measurements)
** Current wind speed in m/s (hover to see current wind gust speed)